Location: Unspecified
(40.7945°N, 111.1337°W)
Time: 01:06:36
(UTC-06:00)

Vanguard 1 - Pass Details

Date: 29 June 2019
Orbit: 653 x 3830 km, 34.3° (Epoch: 17 July)

Event Time Altitude Azimuth Distance (km) Brightness Sun altitude
Rises 21:15:51 0° 168° (SSE) 7,394 14.1 -3.3°
Reaches altitude 10° 21:29:17 10° 136° (SE) 6,883 13.7 -5.4°
Maximum altitude 21:32:43 11° 127° (SE) 6,878 13.7 -5.9°
Drops below altitude 10° 21:36:08 10° 118° (ESE) 6,926 13.7 -6.4°
Sets 21:49:31 0° 88° (E) 7,606 14.2 -8.4°
